User: anonymous   Login
Location: Unspecified
(0.0000°N, 0.0000°E)
Time: 17:42:54
(UTC+00:00)
Language:

AO-40 - Orbit

View from above orbital plane
View from above orbital plane
View from above satellite
View from above satellite

Ground track
Ground track

The orbit data is extracted from the following two-line orbital elements,

1 26609U 00072B   18015.70105706 -.00000071  00000-0  00000+0 0  9991
2 26609   6.4612 181.3708 7925074 201.8236  80.6639  1.25586156 79016
Epoch (UTC): 15 January 2018 16:49:31
Eccentricity: 0.7925074
inclination: 6.4612°
perigee height: 1151 km
apogee height: 58669 km
right ascension of ascending node: 181.3708°
argument of perigee: 201.8236°
revolutions per day: 1.25586156
mean anomaly at epoch: 80.6639°
orbit number at epoch: 7901

The dashed part of the orbit path shows where the satellite is in the earth's shadow,  

DLR